This is the latest recevied weather packets stored in our database for station/object N6OIM. If no packets are shown the sender has not sent any weather packets the latest 10 day(s).
| Time | Temp. | Humidity | Pressure | Rain* | Wind** | Luminosity | Snow |
|---|---|---|---|---|---|---|---|
| 1777960702 | 12.22° C | 90% | 1013.3 hPa | 2.79 mm | - | - | - |
| 1777960414 | 12.22° C | 90% | 1013.1 hPa | 2.54 mm | - | - | - |
| 1777960102 | 12.22° C | 90% | 1013.5 hPa | 2.03 mm | - | - | - |
| 1777959815 | 12.22° C | 90% | 1013.5 hPa | 1.78 mm | - | - | - |
| 1777959504 | 12.22° C | 90% | 1013.4 hPa | 1.52 mm | - | - | - |
| 1777959211 | 12.22° C | 90% | 1013.4 hPa | 0.76 mm | - | - | - |
| 1777958900 | 12.22° C | 90% | 1013.5 hPa | 0.76 mm | - | - | - |
| 1777958608 | 12.22° C | 90% | 1013.4 hPa | 0.76 mm | - | - | - |
| 1777958301 | 12.22° C | 90% | 1013.3 hPa | 1.27 mm | - | - | - |
| 1777958009 | 12.22° C | 90% | 1013.4 hPa | 1.52 mm | - | - | - |
| 1777957698 | 12.22° C | 90% | 1013.4 hPa | 1.78 mm | - | - | - |
| 1777957407 | 12.22° C | 90% | 1013.4 hPa | 2.29 mm | - | - | - |
| 1777957100 | 12.22° C | 90% | 1013.4 hPa | 2.79 mm | - | - | - |
| 1777956808 | 12.22° C | 90% | 1013.4 hPa | 3.3 mm | - | - | - |
| 1777956497 | 12.22° C | 90% | 1013.3 hPa | 3.56 mm | - | - | - |
| 1777956205 | 12.22° C | 90% | 1013.3 hPa | 3.81 mm | - | - | - |
| 1777955897 | 12.22° C | 90% | 1013.3 hPa | 4.32 mm | - | - | - |
| 1777955613 | 12.22° C | 90% | 1013.3 hPa | 4.83 mm | - | - | - |
| 1777955301 | 12.22° C | 90% | 1013.4 hPa | 4.83 mm | - | - | - |
| 1777955010 | 12.22° C | 90% | 1013.4 hPa | 5.08 mm | - | - | - |
| 1777954700 | 12.22° C | 90% | 1013.5 hPa | 5.08 mm | - | - | - |
| 1777954408 | 12.22° C | 90% | 1013.5 hPa | 5.08 mm | - | - | - |
| 1777954101 | 12.78° C | 90% | 1013.4 hPa | 5.08 mm | - | - | - |
| 1777953808 | 12.78° C | 90% | 1013.4 hPa | 5.08 mm | - | - | - |
| 1777953497 | 12.78° C | 90% | 1013.6 hPa | 4.83 mm | - | - | - |
* Rain latest hour (hover to see other rain measurements)
** Current wind speed in m/s (hover to see current wind gust speed)